Regional Weather Roundup
Issued by NWS

Home | Current Version | Previous Version | Graphics & Text | Print | Product List | Glossary Off
Versions: 1 2 3 4 5 6 7 8 9 10 11 12 13 14 15 16 17 18 19 20 21 22 23 24 25 26 27 28 29 30 31 32 33 34 35 36 37 38 39 40 41 42 43 44 45 46 47 48 49 50

000
ASUS43 KMPX 230510
RWRMN
WEATHER ROUNDUP FOR MINNESOTA
NATIONAL WEATHER SERVICE TWIN CITIES/CHANHASSEN MN
1100 PM CST WED FEB 22 2017


NOTE: "FAIR" INDICATES FEW OR NO CLOUDS BELOW 12,000 FEET WITH NO
SIGNIFICANT WEATHER AND/OR OBSTRUCTIONS TO VISIBILITY. N/A MEANS
CURRENT SKY AND/OR WEATHER CONDITIONS ARE NOT AVAILABLE.

MNZ060>063-068>070-230600-
   Twin Cities Metro

CITY           SKY/WX    TMP DP  RH WIND       PRES   REMARKS
TWIN CITIES    CLOUDY    39  32  76 NW18      29.75R
ST PAUL        CLOUDY    39  35  86 NW16      29.76R
CRYSTAL        CLOUDY    37  30  75 N17G24    29.75R
BLAINE         CLOUDY    37  36  93 N16       29.76R
LAKEVILLE      CLOUDY    37  36  93 NW13G20   29.74R
EDEN PRAIRIE   CLOUDY    38  32  79 N15G21    29.74R
SOUTH ST PAUL  CLOUDY    41  34  76 NW10G17   29.74R
LAKE ELMO      CLOUDY    39  36  87 NW9G17    29.74R
$$
MNZ001>005-007-008-013>017-022>024-027-028-230600-
   Northwest Minnesota

CITY           SKY/WX    TMP DP  RH WIND       PRES   REMARKS
BEMIDJI        CLEAR     23  20  88 NW6       29.86R WCI  16
HALLOCK        CLOUDY    28  25  86 N9        29.96R WCI  20
ROSEAU         CLEAR     27  19  74 N10       29.92R WCI  17
WARROAD        PTCLDY    27  19  74 NW7       29.91R WCI  19
THIEF RVR FALL CLEAR     27  25  92 NW9       29.93R WCI  18
CROOKSTON      CLEAR     28  27  93 N12       29.95S WCI  18
FOSSTON        CLEAR     27  25  93 NW7       29.90S WCI  19
DETROIT LAKES  CLEAR     30  28  93 N10       29.90R WCI  21
MOORHEAD       CLEAR     30  27  86 N13       29.95R WCI  20
PARK RAPIDS    PTCLDY    25  21  85 N7        29.85R WCI  17
MAHNOMEN       FAIR      29  25  85 N9        29.89S WCI  21
$$
MNZ006-009>011-018-025>026-230600-
   North Central Minnesota

CITY           SKY/WX    TMP DP  RH WIND       PRES   REMARKS
BAUDETTE       MOCLDY    25  17  72 N13       29.88R WCI  14
FLAG ISLAND    CLOUDY    27  18  69 N18G25    29.90R WCI  13
INTL FALLS     CLOUDY    26  21  81 NW8       29.82S WCI  18
WASKISH        CLEAR     27  21  80 NW7       29.87R WCI  19
BIG FORK       PTCLDY    28  25  86 NW3       29.83R
LONGVILLE      PTCLDY    27  27 100 NW3       29.84R
GRAND RAPIDS   PTCLDY    28  26  92 NW13      29.83R WCI  17
CRANE LAKE     CLOUDY    28  25  86 NW6       29.82S WCI  22
ORR            CLOUDY    28  23  80 CALM      29.78R
COOK           CLOUDY    28  27  93 CALM      29.79S
WALKER         CLOUDY    25  23  91 W3        29.85S
$$
MNZ012-019>021-037-230600-
   Northeast Minnesota

CITY           SKY/WX    TMP DP  RH WIND       PRES   REMARKS
DULUTH         FLURRIES  33  31  92 N14G21    29.73R WCI  23
ELY            CLOUDY    28  27  93 N3        29.76R
HIBBING        CLOUDY    29  28  96 N12       29.78R WCI  19
EVELETH        CLOUDY    32  29  88 N7        29.77S WCI  26
DULUTH HARBOR  MIX PCPN  34  34 100 CALM      29.76R
TWO HARBORS    CLOUDY    37  32  81 N6        29.70S
SILVER BAY     FLURRIES  34  32  93 N6        29.70S WCI  29
GRAND MARAIS     N/A     36  30  79 VRB3      29.71S
G MARAIS ARPRT CLOUDY    28  25  86 NW14G24   29.68R WCI  17
$$
MNZ029>031-032-039>041-046>048-054>057-064-230600-
   West Central Minnesota

CITY           SKY/WX    TMP DP  RH WIND       PRES   REMARKS
FERGUS FALLS   CLEAR     30  27  86 N8        29.95R WCI  23
WHEATON        CLEAR     30  27  86 NW12      29.94R WCI  21
MORRIS         CLOUDY    34  30  86 N16       29.88R WCI  23
ALEXANDRIA     CLOUDY    32  29  88 N20       29.86R WCI  20
ELBOW LAKE     CLOUDY    31  28  86 N13       29.89R WCI  22
WADENA         PTCLDY    28  27  93 N9        29.86R WCI  20
GLENWOOD       CLOUDY    32  30  93 N13G20    29.86R WCI  22
APPLETON       CLOUDY    34  30  86 N13G22    29.89R WCI  25
BENSON         CLOUDY    36  28  75 N15       29.88R
ORTONVILLE     CLOUDY    32  27  80 N18G24    29.91R WCI  20
MADISON        CLOUDY    36  34  93 N20       29.89R
WILLMAR        CLOUDY    36  34  93 N13       29.85R
$$
MNZ033>034-036-042>043-049>051-058-059-230600-
   Central Minnesota

CITY           SKY/WX    TMP DP  RH WIND       PRES   REMARKS
ST CLOUD       CLOUDY    34  32  92 N14G23    29.80R WCI  25
SAUK CENTRE    CLOUDY    32  27  81 N15G25    29.84R WCI  21
PAYNESVILLE    CLOUDY    34  31  89 N12G23    29.84R WCI  25
AITKIN         CLOUDY    34  28  80 N12       29.80R WCI  25
PINE RIVER     MOCLDY    28  27  93 NW7       29.88R WCI  21
BRAINERD       CLOUDY    31  27  85 N15       29.83R WCI  20
STAPLES        CLEAR     28  27  93 N9        29.85S WCI  20
LONG PRAIRIE   CLOUDY    32  27  80 NW12G23   29.84R WCI  23
LITTLE FALLS   CLOUDY    32  28  86 N7G18     29.83R WCI  26
LITCHFIELD     CLOUDY    37  34  87 N15       29.81S
BUFFALO        CLOUDY    36  31  85 NW12      29.80R
MAPLE LAKE     CLOUDY    36  33  88 N17G23    29.81R
HUTCHINSON     CLOUDY    37  33  87 N15G22    29.82R
$$
MNZ037-044-045-052-053-230600-
   East Central Minnesota

CITY           SKY/WX    TMP DP  RH WIND       PRES   REMARKS
PRINCETON      CLOUDY    36  32  87 N15G21    29.79R
MORA           CLOUDY    34  32  93 N8G16     29.79R WCI  27
CAMBRIDGE      CLOUDY    37  30  75 NW12      29.75R
RUSH CITY      CLOUDY    34  32  93 N10G20    29.76R WCI  26
MOOSE LAKE     CLOUDY    32  32 100 N9        29.74R WCI  24
HINCKLEY       CLOUDY    34  32  93 N10       29.76R WCI  26
CLOQUET        CLOUDY    34  30  86 NW13      29.74R WCI  25
MCGREGOR       CLOUDY    32  32 100 NW14      29.79R WCI  22
$$
MNZ071>073-080-081-089-090-097-098-230600-
   Southwest Minnesota

CITY           SKY/WX    TMP DP  RH WIND       PRES   REMARKS
MONTEVIDEO     CLOUDY    34  32  93 N14       29.88R WCI  24
GRANITE FALLS  CLOUDY    36  33  87 NW12G22   29.88R
CANBY          CLOUDY    33  31  92 NW14G24   29.90R WCI  23
MARSHALL       CLOUDY    33  30  88 N20G26    29.88R WCI  21
REDWOOD FALLS  CLOUDY    37  32  82 NW8G17    29.84R
OLIVIA         CLOUDY    36  32  87 N12       29.83R
PIPESTONE      CLOUDY    34  28  80 N13G18    29.84S WCI  25
WINDOM         CLOUDY    36  34  93 NW17G23   29.84R
WORTHINGTON    CLOUDY    34  32  92 NW14      29.86R WCI  25
JACKSON          N/A     34  32  93 NW18G26   29.84R WCI  23
TRACY          CLOUDY    34  33  95 NW16G24   29.86R WCI  24
SLAYTON        CLOUDY    32  32  99 N15       29.85R WCI  22
$$
MNZ065>067-074>077-082>085-091>093-230600-
   South Central Minnesota

CITY           SKY/WX    TMP DP  RH WIND       PRES   REMARKS
MANKATO          N/A     39  36  89 NW16      29.78R
NEW ULM        CLOUDY    37  34  87 NW16G25   29.80R
ST JAMES       CLOUDY    36  36 100 NW15G22   29.82R
FAIRMONT       CLOUDY    37  35  92 NW17      29.81R
GLENCOE        CLOUDY    37  35  92 NW12      29.80R
FARIBAULT      CLOUDY    41  37  87 W8        29.75R
OWATONNA       CLOUDY    41  37  87 NW15      29.74R
WASECA         CLOUDY    39  36  87 NW20      29.76R
ALBERT LEA     CLOUDY    41  39  93 NW13G22   29.74R
$$
MNZ078>079-086>088-094>096-230600-
   Southeast Minnesota

CITY           SKY/WX    TMP DP  RH WIND       PRES   REMARKS
ROCHESTER      CLOUDY    42  40  92 NW20      29.69R
RED WING       CLOUDY    43  36  75 NW10G16   29.71R
STANTON        CLOUDY    42  37  83 NW12      29.72R
DODGE CENTER   PTCLDY    43  39  87 NW21G30   29.71R
WINONA         PTCLDY    48  43  81 NW10      29.66R
AUSTIN         CLOUDY    43  37  81 NW16G23   29.72R
PRESTON        MOCLDY    42  39  89 NW18G24   29.69R
$$
ABBREVIATIONS USED IN REMARKS
   TC - TEMPERATURES IN CELSIUS
  WCI - WIND CHILL INDEX
   HX - HEAT INDEX
  VSB - VISIBILITY
$$




USA.gov is the U.S. government's official web portal to all federal, state and local government web resources and services.